RYR64YL EDDK-LOWW

Flight info

Callsign RYR64YL
Flight time 1h 29m
Altitude 35000
Route KUMIK1R/31R KUMIK L603 TESGA DCT ESATI DCT BOREP DCT ENITA DCT ETVIS DCT BUDEX BUDEX2W
Aircraft A320/M-SDE3FGHIRWY/LB1

Departure

Time 2026-05-06 18:52
Airport Cologne Bonn Airport (EDDK)

Arrival

Time 2026-05-06 20:21
Airport Vienna International Airport (LOWW)
Time Latitude Longitude Altitude Speed Heading
2026-05-06 18:04 50.87722 7.12160 232 ft 0 kts 51°
2026-05-06 18:31 50.87713 7.12142 205 ft 4 kts 47°
2026-05-06 18:32 50.87695 7.12120 240 ft 4 kts
2026-05-06 18:32 50.87675 7.12119 236 ft 4 kts 14°
2026-05-06 18:32 50.87655 7.12102 234 ft 4 kts 55°
2026-05-06 18:32 50.87646 7.12067 235 ft 4 kts 91°
2026-05-06 18:33 50.87649 7.12037 235 ft 0 kts 117°
2026-05-06 18:37 50.87647 7.12043 232 ft 2 kts 118°
2026-05-06 18:37 50.87633 7.12087 234 ft 7 kts 117°
2026-05-06 18:37 50.87609 7.12160 233 ft 7 kts 117°
2026-05-06 18:37 50.87579 7.12249 233 ft 9 kts 117°
2026-05-06 18:38 50.87552 7.12332 234 ft 8 kts 117°
2026-05-06 18:38 50.87543 7.12410 232 ft 8 kts 63°
2026-05-06 18:38 50.87600 7.12464 232 ft 10 kts 17°
2026-05-06 18:38 50.87683 7.12507 234 ft 14 kts 18°
2026-05-06 18:39 50.87760 7.12584 232 ft 13 kts 75°
2026-05-06 18:39 50.87763 7.12696 232 ft 9 kts 115°
2026-05-06 18:39 50.87719 7.12771 232 ft 12 kts 137°
2026-05-06 18:40 50.87494 7.13098 232 ft 25 kts 137°
2026-05-06 18:40 50.87370 7.13277 232 ft 24 kts 137°
2026-05-06 18:40 50.87243 7.13461 234 ft 24 kts 137°
2026-05-06 18:40 50.87122 7.13636 239 ft 23 kts 137°
2026-05-06 18:41 50.87007 7.13801 243 ft 22 kts 137°
2026-05-06 18:41 50.86909 7.13943 251 ft 16 kts 137°
2026-05-06 18:41 50.86844 7.14036 255 ft 11 kts 137°
2026-05-06 18:41 50.86792 7.14112 255 ft 10 kts 140°
2026-05-06 18:42 50.86736 7.14137 256 ft 7 kts 161°
2026-05-06 18:42 50.86713 7.14167 257 ft 2 kts 138°
2026-05-06 18:42 50.86697 7.14189 258 ft 2 kts 137°
2026-05-06 18:42 50.86692 7.14196 259 ft 2 kts 137°
2026-05-06 18:43 50.86690 7.14200 259 ft 0 kts 137°
2026-05-06 18:43 50.86685 7.14207 259 ft 4 kts 137°
2026-05-06 18:43 50.86644 7.14267 261 ft 11 kts 137°
2026-05-06 18:44 50.86570 7.14376 262 ft 17 kts 138°
2026-05-06 18:44 50.86494 7.14484 266 ft 12 kts 137°
2026-05-06 18:44 50.86433 7.14573 270 ft 16 kts 137°
2026-05-06 18:44 50.86354 7.14687 275 ft 14 kts 137°
2026-05-06 18:45 50.86286 7.14786 279 ft 12 kts 138°
2026-05-06 18:45 50.86213 7.14892 283 ft 17 kts 137°
2026-05-06 18:45 50.86111 7.15040 287 ft 21 kts 137°
2026-05-06 18:45 50.86039 7.15144 294 ft 20 kts 137°
2026-05-06 18:46 50.85920 7.15316 294 ft 15 kts 137°
2026-05-06 18:46 50.85839 7.15433 296 ft 16 kts 137°
2026-05-06 18:46 50.85763 7.15544 299 ft 16 kts 137°
2026-05-06 18:46 50.85671 7.15677 302 ft 18 kts 137°
2026-05-06 18:47 50.85572 7.15820 305 ft 19 kts 137°
2026-05-06 18:47 50.85487 7.15943 308 ft 15 kts 137°
2026-05-06 18:47 50.85414 7.16050 310 ft 13 kts 137°
2026-05-06 18:47 50.85354 7.16151 310 ft 12 kts 119°
2026-05-06 18:48 50.85335 7.16266 308 ft 10 kts 91°
2026-05-06 18:48 50.85347 7.16365 308 ft 9 kts 69°
2026-05-06 18:48 50.85376 7.16437 308 ft 7 kts 48°
2026-05-06 18:48 50.85409 7.16481 308 ft 6 kts 34°
2026-05-06 18:49 50.85418 7.16489 308 ft 0 kts 30°
2026-05-06 18:49 50.85422 7.16492 308 ft 3 kts 28°
2026-05-06 18:49 50.85492 7.16520 307 ft 15 kts
2026-05-06 18:50 50.85578 7.16485 309 ft 10 kts 308°
2026-05-06 18:50 50.85586 7.16472 308 ft 0 kts 320°
2026-05-06 18:51 50.85729 7.16267 308 ft 65 kts 317°
2026-05-06 18:51 50.86234 7.15535 294 ft 130 kts 317°
2026-05-06 18:52 50.87009 7.14408 499 ft 159 kts 318°
2026-05-06 18:52 50.87817 7.13234 1254 ft 158 kts 318°
2026-05-06 18:52 50.88660 7.12014 1765 ft 175 kts 321°
2026-05-06 18:52 50.89805 7.11148 2024 ft 198 kts 356°
2026-05-06 18:53 50.91173 7.11620 2640 ft 206 kts 21°
2026-05-06 18:53 50.92473 7.12588 3426 ft 208 kts 26°
2026-05-06 18:53 50.93610 7.14046 4099 ft 218 kts 51°
2026-05-06 18:53 50.94355 7.16288 4503 ft 243 kts 63°
2026-05-06 18:54 50.95095 7.18821 5017 ft 261 kts 63°
2026-05-06 18:54 50.95896 7.21455 5803 ft 269 kts 62°
2026-05-06 18:54 50.96720 7.24138 6640 ft 273 kts 62°
2026-05-06 18:54 50.97558 7.26807 7492 ft 275 kts 61°
2026-05-06 18:55 50.98420 7.29539 8374 ft 277 kts 61°
2026-05-06 18:55 50.99285 7.32271 9316 ft 277 kts 60°
2026-05-06 18:55 51.00156 7.35021 10081 ft 284 kts 60°
2026-05-06 18:55 51.01035 7.37973 10372 ft 309 kts 68°
2026-05-06 18:56 51.01502 7.41425 10757 ft 329 kts 84°
2026-05-06 18:56 51.01394 7.45123 11420 ft 339 kts 97°
2026-05-06 18:56 51.00797 7.48774 12139 ft 345 kts 106°
2026-05-06 18:56 51.00061 7.52431 12846 ft 350 kts 106°
2026-05-06 18:57 50.99323 7.56140 13329 ft 355 kts 106°
2026-05-06 18:57 50.98593 7.59892 13588 ft 357 kts 108°
2026-05-06 18:57 50.97862 7.63679 13867 ft 361 kts 108°
2026-05-06 18:57 50.97121 7.67478 14593 ft 361 kts 108°
2026-05-06 18:58 50.96621 7.70004 14998 ft 364 kts 108°
2026-05-06 18:58 50.95579 7.75104 15802 ft 369 kts 115°
2026-05-06 18:58 50.94222 7.78555 16397 ft 371 kts 133°
2026-05-06 18:58 50.92442 7.81538 17018 ft 374 kts 135°
2026-05-06 18:59 50.90648 7.84554 17651 ft 377 kts 134°
2026-05-06 18:59 50.89434 7.86612 18057 ft 380 kts 134°
2026-05-06 18:59 50.87623 7.89700 18598 ft 384 kts 134°
2026-05-06 18:59 50.85798 7.92813 19158 ft 387 kts 134°
2026-05-06 19:00 50.83983 7.95904 19715 ft 389 kts 134°
2026-05-06 19:00 50.82130 7.99051 20289 ft 392 kts 134°
2026-05-06 19:00 50.80264 8.02210 20865 ft 394 kts 136°
2026-05-06 19:00 50.78382 8.05381 21440 ft 396 kts 136°
2026-05-06 19:01 50.76488 8.08565 22005 ft 399 kts 136°
2026-05-06 19:01 50.74582 8.11770 22551 ft 402 kts 135°
2026-05-06 19:01 50.72661 8.15000 23091 ft 405 kts 135°
2026-05-06 19:01 50.70730 8.18249 23569 ft 407 kts 135°
2026-05-06 19:02 50.68782 8.21516 24005 ft 410 kts 135°
2026-05-06 19:02 50.66821 8.24795 24446 ft 411 kts 136°
2026-05-06 19:02 50.64856 8.28078 24888 ft 413 kts 136°
2026-05-06 19:02 50.62866 8.31401 25295 ft 415 kts 136°
2026-05-06 19:03 50.60898 8.34688 25689 ft 416 kts 136°
2026-05-06 19:03 50.58906 8.38008 26086 ft 418 kts 136°
2026-05-06 19:03 50.56901 8.41344 26465 ft 419 kts 136°
2026-05-06 19:03 50.54900 8.44674 26911 ft 419 kts 136°
2026-05-06 19:04 50.52893 8.48005 27332 ft 420 kts 136°
2026-05-06 19:04 50.50879 8.51338 27729 ft 421 kts 136°
2026-05-06 19:04 50.48853 8.54682 28124 ft 423 kts 136°
2026-05-06 19:04 50.46824 8.58031 28490 ft 424 kts 136°
2026-05-06 19:05 50.44786 8.61394 28860 ft 425 kts 136°
2026-05-06 19:05 50.42748 8.64671 29212 ft 426 kts 137°
2026-05-06 19:05 50.40627 8.67928 29563 ft 427 kts 138°
2026-05-06 19:05 50.38473 8.71145 29891 ft 428 kts 139°
2026-05-06 19:06 50.36304 8.74342 30168 ft 429 kts 139°
2026-05-06 19:06 50.34122 8.77554 30420 ft 431 kts 139°
2026-05-06 19:06 50.31937 8.80788 30653 ft 433 kts 139°
2026-05-06 19:06 50.29754 8.84047 30895 ft 435 kts 137°
2026-05-06 19:07 50.27850 8.87736 31134 ft 440 kts 123°
2026-05-06 19:07 50.26653 8.92159 31409 ft 446 kts 107°
2026-05-06 19:07 50.26039 8.96928 31691 ft 448 kts 103°
2026-05-06 19:07 50.25477 9.01721 31969 ft 449 kts 103°
2026-05-06 19:08 50.24924 9.06517 32256 ft 449 kts 103°
2026-05-06 19:08 50.24374 9.11320 32542 ft 449 kts 103°
2026-05-06 19:08 50.23819 9.16127 32825 ft 450 kts 104°
2026-05-06 19:08 50.23259 9.20931 33103 ft 450 kts 104°
2026-05-06 19:09 50.22688 9.25743 33377 ft 450 kts 105°
2026-05-06 19:09 50.22056 9.30522 33678 ft 449 kts 107°
2026-05-06 19:09 50.21360 9.35264 33947 ft 448 kts 108°
2026-05-06 19:09 50.20626 9.39991 34163 ft 448 kts 109°
2026-05-06 19:10 50.19876 9.44724 34393 ft 449 kts 109°
2026-05-06 19:10 50.19132 9.49451 34607 ft 449 kts 108°
2026-05-06 19:10 50.18408 9.54142 34769 ft 451 kts 108°
2026-05-06 19:11 50.16986 9.63582 34806 ft 444 kts 108°
2026-05-06 19:11 50.15577 9.72955 34809 ft 444 kts 108°
2026-05-06 19:12 50.14150 9.82320 34808 ft 444 kts 108°
2026-05-06 19:12 50.12705 9.91687 34805 ft 444 kts 109°
2026-05-06 19:13 50.11253 10.01038 34803 ft 444 kts 109°
2026-05-06 19:13 50.09803 10.10382 34777 ft 444 kts 109°
2026-05-06 19:14 50.08339 10.19734 34781 ft 444 kts 109°
2026-05-06 19:14 50.06866 10.29075 34785 ft 444 kts 109°
2026-05-06 19:15 50.05383 10.38412 34787 ft 445 kts 109°
2026-05-06 19:15 50.03903 10.47759 34789 ft 445 kts 109°
2026-05-06 19:16 50.02412 10.57097 34763 ft 445 kts 109°
2026-05-06 19:16 50.00906 10.66434 34776 ft 446 kts 109°
2026-05-06 19:17 49.99399 10.75790 34780 ft 446 kts 109°
2026-05-06 19:17 49.97890 10.85156 34786 ft 447 kts 109°
2026-05-06 19:18 49.96360 10.94513 34790 ft 447 kts 109°
2026-05-06 19:18 49.94820 11.03865 34774 ft 447 kts 110°
2026-05-06 19:19 49.93280 11.13237 34775 ft 449 kts 110°
2026-05-06 19:19 49.91724 11.22619 34781 ft 449 kts 110°
2026-05-06 19:20 49.90160 11.32006 34787 ft 450 kts 110°
2026-05-06 19:20 49.88595 11.41331 34767 ft 450 kts 110°
2026-05-06 19:21 49.87009 11.50724 34773 ft 451 kts 111°
2026-05-06 19:21 49.85414 11.60132 34777 ft 452 kts 111°
2026-05-06 19:22 49.83814 11.69544 34776 ft 452 kts 111°
2026-05-06 19:22 49.82199 11.78961 34778 ft 452 kts 111°
2026-05-06 19:23 49.80575 11.88366 34760 ft 452 kts 111°
2026-05-06 19:23 49.78948 11.97756 34771 ft 452 kts 111°
2026-05-06 19:24 49.77321 12.07142 34776 ft 451 kts 111°
2026-05-06 19:24 49.75690 12.16513 34780 ft 451 kts 111°
2026-05-06 19:25 49.74039 12.25869 34783 ft 451 kts 111°
2026-05-06 19:25 49.72387 12.35229 34759 ft 452 kts 111°
2026-05-06 19:26 49.70715 12.44614 34756 ft 453 kts 112°
2026-05-06 19:26 49.69140 12.54088 34752 ft 457 kts 109°
2026-05-06 19:27 49.67830 12.63639 34756 ft 457 kts 110°
2026-05-06 19:27 49.66740 12.68156 34758 ft 443 kts 126°
2026-05-06 19:27 49.65133 12.72167 34745 ft 439 kts 130°
2026-05-06 19:28 49.61753 12.80155 34779 ft 451 kts 130°
2026-05-06 19:28 49.58259 12.88325 34779 ft 461 kts 130°
2026-05-06 19:29 49.54723 12.96625 34774 ft 464 kts 130°
2026-05-06 19:29 49.51188 13.04943 34772 ft 464 kts 129°
2026-05-06 19:30 49.47646 13.13241 34778 ft 464 kts 130°
2026-05-06 19:30 49.44087 13.21519 34776 ft 464 kts 130°
2026-05-06 19:31 49.40524 13.29776 34774 ft 463 kts 130°
2026-05-06 19:31 49.35187 13.42104 34784 ft 462 kts 130°
2026-05-06 19:32 49.31632 13.50301 34747 ft 461 kts 130°
2026-05-06 19:32 49.28076 13.58481 34751 ft 462 kts 130°
2026-05-06 19:33 49.24500 13.66661 34748 ft 462 kts 130°
2026-05-06 19:33 49.20921 13.74822 34751 ft 462 kts 130°
2026-05-06 19:34 49.17336 13.82964 34752 ft 462 kts 130°
2026-05-06 19:34 49.13772 13.91048 34731 ft 462 kts 130°
2026-05-06 19:35 49.10183 13.99179 34723 ft 462 kts 131°
2026-05-06 19:35 49.06582 14.07303 34728 ft 462 kts 131°
2026-05-06 19:36 49.04778 14.11360 34566 ft 464 kts 131°
2026-05-06 19:36 49.02970 14.15422 34278 ft 462 kts 131°
2026-05-06 19:36 49.01161 14.19484 34028 ft 463 kts 131°
2026-05-06 19:36 48.99350 14.23541 33403 ft 463 kts 132°
2026-05-06 19:37 48.97534 14.27591 32849 ft 464 kts 132°
2026-05-06 19:37 48.95711 14.31645 32263 ft 466 kts 131°
2026-05-06 19:37 48.93860 14.35700 31674 ft 466 kts 133°
2026-05-06 19:37 48.92595 14.38339 31298 ft 466 kts 134°
2026-05-06 19:38 48.89996 14.43512 30921 ft 452 kts 135°
2026-05-06 19:38 48.88087 14.47216 30752 ft 436 kts 135°
2026-05-06 19:38 48.86265 14.50737 30627 ft 422 kts 135°
2026-05-06 19:38 48.84482 14.54193 30506 ft 409 kts 135°
2026-05-06 19:39 48.82754 14.57560 30262 ft 401 kts 136°
2026-05-06 19:39 48.81051 14.60885 29858 ft 397 kts 136°
2026-05-06 19:39 48.79364 14.64186 29361 ft 395 kts 136°
2026-05-06 19:39 48.77689 14.67475 28888 ft 392 kts 135°
2026-05-06 19:40 48.76047 14.70713 28721 ft 380 kts 135°
2026-05-06 19:40 48.74476 14.73821 28479 ft 364 kts 136°
2026-05-06 19:40 48.72958 14.76816 28214 ft 351 kts 136°
2026-05-06 19:40 48.71479 14.79719 27946 ft 344 kts 136°
2026-05-06 19:41 48.70021 14.82559 27599 ft 340 kts 137°
2026-05-06 19:41 48.68575 14.85364 27211 ft 336 kts 137°
2026-05-06 19:41 48.67156 14.88107 26823 ft 334 kts 137°
2026-05-06 19:41 48.65733 14.90860 26440 ft 331 kts 136°
2026-05-06 19:42 48.64321 14.93599 26041 ft 329 kts 136°
2026-05-06 19:42 48.62922 14.96315 25640 ft 325 kts 136°
2026-05-06 19:42 48.61537 14.99005 25167 ft 322 kts 136°
2026-05-06 19:42 48.60174 15.01673 24708 ft 321 kts 133°
2026-05-06 19:43 48.59035 15.04600 24258 ft 326 kts 122°
2026-05-06 19:43 48.58251 15.07832 23804 ft 331 kts 111°
2026-05-06 19:43 48.57683 15.11188 23336 ft 328 kts 111°
2026-05-06 19:43 48.57118 15.14500 22761 ft 324 kts 112°
2026-05-06 19:44 48.56554 15.17782 22176 ft 321 kts 112°
2026-05-06 19:44 48.55996 15.21024 21589 ft 318 kts 112°
2026-05-06 19:44 48.55439 15.24238 21025 ft 316 kts 112°
2026-05-06 19:44 48.54883 15.27429 20527 ft 312 kts 112°
2026-05-06 19:45 48.54334 15.30583 19957 ft 310 kts 112°
2026-05-06 19:45 48.53786 15.33726 19537 ft 309 kts 111°
2026-05-06 19:45 48.53239 15.36857 19217 ft 308 kts 111°
2026-05-06 19:45 48.52695 15.39971 18895 ft 306 kts 111°
2026-05-06 19:46 48.52163 15.43073 18594 ft 306 kts 108°
2026-05-06 19:46 48.51872 15.46266 18297 ft 308 kts 100°
2026-05-06 19:46 48.51759 15.48394 18143 ft 306 kts 100°
2026-05-06 19:46 48.51586 15.51568 17889 ft 302 kts 100°
2026-05-06 19:47 48.51357 15.55758 17527 ft 297 kts 100°
2026-05-06 19:47 48.51243 15.57805 17348 ft 294 kts 100°
2026-05-06 19:47 48.51068 15.60869 17089 ft 292 kts 100°
2026-05-06 19:47 48.50892 15.63906 16834 ft 289 kts 100°
2026-05-06 19:48 48.50719 15.66920 16734 ft 287 kts 100°
2026-05-06 19:48 48.50546 15.69926 16748 ft 288 kts 100°
2026-05-06 19:48 48.50370 15.72935 16747 ft 288 kts 100°
2026-05-06 19:48 48.50192 15.75945 16739 ft 288 kts 100°
2026-05-06 19:49 48.50013 15.78958 16748 ft 289 kts 100°
2026-05-06 19:49 48.49834 15.81976 16747 ft 289 kts 100°
2026-05-06 19:49 48.49656 15.84988 16747 ft 289 kts 100°
2026-05-06 19:49 48.49477 15.88004 16747 ft 289 kts 100°
2026-05-06 19:50 48.49296 15.91021 16747 ft 289 kts 100°
2026-05-06 19:50 48.49117 15.94034 16747 ft 289 kts 100°
2026-05-06 19:50 48.48936 15.97049 16748 ft 289 kts 100°
2026-05-06 19:50 48.48753 16.00063 16747 ft 289 kts 101°
2026-05-06 19:51 48.48569 16.03043 16602 ft 290 kts 100°
2026-05-06 19:51 48.48384 16.06059 16344 ft 288 kts 100°
2026-05-06 19:51 48.48199 16.09063 16078 ft 286 kts 100°
2026-05-06 19:51 48.47799 16.11941 15833 ft 275 kts 120°
2026-05-06 19:52 48.46750 16.14247 15587 ft 262 kts 143°
2026-05-06 19:52 48.45261 16.15711 15339 ft 253 kts 164°
2026-05-06 19:52 48.43580 16.16248 15076 ft 244 kts 184°
2026-05-06 19:52 48.41932 16.15879 14834 ft 238 kts 201°
2026-05-06 19:53 48.40493 16.14694 14592 ft 236 kts 219°
2026-05-06 19:53 48.39414 16.12844 14351 ft 237 kts 237°
2026-05-06 19:53 48.38812 16.10519 14119 ft 243 kts 257°
2026-05-06 19:53 48.38782 16.07954 13884 ft 250 kts 277°
2026-05-06 19:54 48.39280 16.05457 13757 ft 254 kts 284°
2026-05-06 19:54 48.39844 16.02937 13750 ft 255 kts 284°
2026-05-06 19:54 48.40404 16.00410 13753 ft 255 kts 284°
2026-05-06 19:54 48.40964 15.97871 13584 ft 256 kts 284°
2026-05-06 19:55 48.41524 15.95340 13324 ft 254 kts 284°
2026-05-06 19:55 48.42170 15.92874 13056 ft 255 kts 296°
2026-05-06 19:55 48.43322 15.90819 12793 ft 261 kts 318°
2026-05-06 19:55 48.44931 15.89539 12533 ft 266 kts 341°
2026-05-06 19:56 48.46779 15.89288 12275 ft 270 kts
2026-05-06 19:56 48.48562 15.90170 12019 ft 272 kts 31°
2026-05-06 19:56 48.49963 15.92039 11812 ft 270 kts 56°
2026-05-06 19:56 48.50761 15.94561 11737 ft 266 kts 81°
2026-05-06 19:57 48.50857 15.97306 11748 ft 261 kts 104°
2026-05-06 19:57 48.50419 15.99942 11749 ft 259 kts 111°
2026-05-06 19:57 48.49867 16.02525 11750 ft 259 kts 113°
2026-05-06 19:57 48.49282 16.05093 11748 ft 259 kts 114°
2026-05-06 19:58 48.48692 16.07655 11748 ft 259 kts 113°
2026-05-06 19:58 48.48094 16.10207 11755 ft 257 kts 118°
2026-05-06 19:58 48.47101 16.12361 11751 ft 248 kts 144°
2026-05-06 19:58 48.45637 16.13605 11757 ft 240 kts 169°
2026-05-06 19:59 48.44008 16.13801 11757 ft 234 kts 192°
2026-05-06 19:59 48.42493 16.12984 11758 ft 232 kts 214°
2026-05-06 19:59 48.41342 16.11310 11756 ft 233 kts 236°
2026-05-06 19:59 48.40746 16.09049 11756 ft 236 kts 259°
2026-05-06 20:00 48.40828 16.06562 11755 ft 243 kts 281°
2026-05-06 20:00 48.41305 16.04143 11758 ft 245 kts 284°
2026-05-06 20:00 48.41844 16.01711 11755 ft 245 kts 284°
2026-05-06 20:00 48.42400 15.99283 11755 ft 245 kts 285°
2026-05-06 20:01 48.42958 15.96853 11754 ft 245 kts 284°
2026-05-06 20:01 48.43668 15.94510 11746 ft 250 kts 303°
2026-05-06 20:01 48.44980 15.92755 11750 ft 258 kts 329°
2026-05-06 20:01 48.46727 15.92033 11680 ft 268 kts 357°
2026-05-06 20:02 48.48532 15.92637 11423 ft 269 kts 28°
2026-05-06 20:02 48.49930 15.94464 11169 ft 267 kts 58°
2026-05-06 20:02 48.50597 15.97020 10925 ft 261 kts 88°
2026-05-06 20:02 48.50434 15.99680 10684 ft 254 kts 111°
2026-05-06 20:03 48.49905 16.02221 10445 ft 254 kts 113°
2026-05-06 20:03 48.49340 16.04742 10204 ft 253 kts 113°
2026-05-06 20:03 48.48761 16.07239 9971 ft 252 kts 117°
2026-05-06 20:03 48.47858 16.09439 9725 ft 243 kts 138°
2026-05-06 20:04 48.46565 16.10961 9475 ft 236 kts 158°
2026-05-06 20:04 48.45072 16.11962 9204 ft 235 kts 161°
2026-05-06 20:04 48.43574 16.12944 8960 ft 235 kts 161°
2026-05-06 20:04 48.42079 16.13927 8700 ft 234 kts 161°
2026-05-06 20:05 48.40587 16.14911 8431 ft 234 kts 160°
2026-05-06 20:05 48.39067 16.15908 8178 ft 243 kts 160°
2026-05-06 20:05 48.37509 16.16929 7920 ft 245 kts 160°
2026-05-06 20:05 48.35938 16.17960 7670 ft 247 kts 160°
2026-05-06 20:06 48.34361 16.18996 7418 ft 247 kts 161°
2026-05-06 20:06 48.32788 16.20032 7181 ft 247 kts 160°
2026-05-06 20:06 48.31347 16.21456 6934 ft 253 kts 136°
2026-05-06 20:06 48.30448 16.23703 6729 ft 251 kts 109°
2026-05-06 20:07 48.30291 16.26292 6624 ft 252 kts 82°
2026-05-06 20:07 48.30726 16.28838 6501 ft 252 kts 74°
2026-05-06 20:07 48.31297 16.31312 6402 ft 250 kts 60°
2026-05-06 20:07 48.32379 16.33309 6309 ft 246 kts 36°
2026-05-06 20:08 48.33862 16.34512 6211 ft 241 kts 12°
2026-05-06 20:08 48.35497 16.34776 6118 ft 234 kts 349°
2026-05-06 20:08 48.37065 16.34225 6014 ft 232 kts 339°
2026-05-06 20:08 48.38612 16.33553 5985 ft 232 kts 339°
2026-05-06 20:09 48.40142 16.32894 5987 ft 232 kts 340°
2026-05-06 20:09 48.41696 16.32230 5985 ft 232 kts 340°
2026-05-06 20:09 48.43252 16.31564 5984 ft 232 kts 340°
2026-05-06 20:09 48.44807 16.30898 5984 ft 233 kts 340°
2026-05-06 20:10 48.46369 16.30230 5981 ft 233 kts 340°
2026-05-06 20:10 48.47935 16.29580 5978 ft 234 kts 342°
2026-05-06 20:10 48.49571 16.29590 5979 ft 241 kts 14°
2026-05-06 20:10 48.51001 16.30910 5982 ft 247 kts 47°
2026-05-06 20:11 48.51792 16.33171 5979 ft 241 kts 80°
2026-05-06 20:11 48.51765 16.35591 5983 ft 226 kts 102°
2026-05-06 20:11 48.51433 16.37891 5973 ft 223 kts 114°
2026-05-06 20:11 48.50757 16.39973 5972 ft 222 kts 123°
2026-05-06 20:12 48.49936 16.41924 5865 ft 218 kts 136°
2026-05-06 20:12 48.48711 16.42945 5803 ft 192 kts 178°
2026-05-06 20:12 48.47447 16.42966 5702 ft 177 kts 181°
2026-05-06 20:12 48.46242 16.43285 5596 ft 175 kts 172°
2026-05-06 20:13 48.45068 16.43737 5499 ft 174 kts 171°
2026-05-06 20:13 48.43901 16.44220 5447 ft 174 kts 170°
2026-05-06 20:13 48.42735 16.44714 5388 ft 174 kts 170°
2026-05-06 20:13 48.41570 16.45212 5365 ft 174 kts 170°
2026-05-06 20:14 48.40411 16.45708 5347 ft 173 kts 170°
2026-05-06 20:14 48.39251 16.46204 5324 ft 173 kts 169°
2026-05-06 20:14 48.38089 16.46701 5290 ft 174 kts 169°
2026-05-06 20:14 48.36926 16.47199 5276 ft 173 kts 169°
2026-05-06 20:15 48.35764 16.47696 5243 ft 174 kts 169°
2026-05-06 20:15 48.34595 16.48195 5094 ft 175 kts 169°
2026-05-06 20:15 48.33427 16.48694 4884 ft 174 kts 169°
2026-05-06 20:15 48.32268 16.49190 4671 ft 172 kts 171°
2026-05-06 20:16 48.31122 16.49679 4453 ft 171 kts 171°
2026-05-06 20:16 48.29985 16.50164 4227 ft 169 kts 171°
2026-05-06 20:16 48.28859 16.50644 3996 ft 167 kts 171°
2026-05-06 20:16 48.27763 16.51112 3784 ft 163 kts 172°
2026-05-06 20:17 48.26688 16.51571 3555 ft 158 kts 173°
2026-05-06 20:17 48.25650 16.52014 3355 ft 152 kts 173°
2026-05-06 20:17 48.24649 16.52440 3164 ft 147 kts 173°
2026-05-06 20:17 48.23681 16.52852 2975 ft 143 kts 174°
2026-05-06 20:18 48.22733 16.53254 2782 ft 140 kts 174°
2026-05-06 20:18 48.21801 16.53650 2603 ft 138 kts 174°
2026-05-06 20:18 48.20883 16.54040 2421 ft 136 kts 173°
2026-05-06 20:18 48.19985 16.54421 2241 ft 132 kts 173°
2026-05-06 20:19 48.19121 16.54789 2072 ft 127 kts 173°
2026-05-06 20:19 48.18283 16.55145 1925 ft 125 kts 172°
2026-05-06 20:19 48.17439 16.55501 1743 ft 126 kts 171°
2026-05-06 20:19 48.16604 16.55856 1579 ft 124 kts 170°
2026-05-06 20:20 48.15770 16.56209 1413 ft 125 kts 167°
2026-05-06 20:20 48.14942 16.56560 1254 ft 125 kts 168°
2026-05-06 20:20 48.14102 16.56916 1079 ft 123 kts 165°
2026-05-06 20:20 48.13273 16.57266 921 ft 124 kts 163°
2026-05-06 20:21 48.12445 16.57619 739 ft 123 kts 163°
2026-05-06 20:21 48.11630 16.57961 621 ft 119 kts 163°
2026-05-06 20:21 48.11033 16.58218 612 ft 51 kts 164°
2026-05-06 20:21 48.10736 16.58343 620 ft 39 kts 164°
2026-05-06 20:22 48.10499 16.58442 612 ft 32 kts 165°
2026-05-06 20:22 48.10296 16.58457 609 ft 27 kts 188°
2026-05-06 20:22 48.10154 16.58407 609 ft 9 kts 195°
2026-05-06 20:22 48.10109 16.58355 611 ft 9 kts 241°
2026-05-06 20:23 48.10092 16.58271 617 ft 8 kts 254°
2026-05-06 20:23 48.10094 16.58199 616 ft 6 kts 302°
2026-05-06 20:23 48.10144 16.58174 618 ft 13 kts 344°
2026-05-06 20:23 48.10219 16.58143 617 ft 9 kts 344°
2026-05-06 20:24 48.10274 16.58119 612 ft 8 kts 344°
2026-05-06 20:24 48.10310 16.58104 619 ft 3 kts 344°
2026-05-06 20:24 48.10325 16.58098 621 ft 0 kts 344°
2026-05-06 20:24 48.10326 16.58097 620 ft 0 kts 344°
2026-05-06 20:25 48.10332 16.58095 616 ft 4 kts 344°
2026-05-06 20:25 48.10389 16.58071 609 ft 13 kts 344°
2026-05-06 20:25 48.10506 16.58022 615 ft 20 kts 344°
2026-05-06 20:25 48.10634 16.57967 615 ft 18 kts 344°
2026-05-06 20:26 48.10793 16.57901 610 ft 29 kts 344°
2026-05-06 20:26 48.10889 16.57860 618 ft 8 kts 344°
2026-05-06 20:26 48.10938 16.57839 621 ft 10 kts 344°
2026-05-06 20:26 48.11028 16.57794 620 ft 12 kts 326°
2026-05-06 20:27 48.11069 16.57703 618 ft 13 kts 296°
2026-05-06 20:27 48.11124 16.57535 613 ft 20 kts 296°
2026-05-06 20:27 48.11182 16.57357 613 ft 18 kts 296°
2026-05-06 20:27 48.11236 16.57192 617 ft 17 kts 296°
2026-05-06 20:28 48.11279 16.57060 616 ft 10 kts 296°
2026-05-06 20:28 48.11303 16.56987 615 ft 7 kts 296°
2026-05-06 20:28 48.11335 16.56889 618 ft 15 kts 296°
2026-05-06 20:28 48.11379 16.56754 618 ft 16 kts 296°
2026-05-06 20:29 48.11431 16.56593 610 ft 17 kts 295°
2026-05-06 20:29 48.11480 16.56442 619 ft 16 kts 296°
2026-05-06 20:29 48.11535 16.56274 621 ft 21 kts 296°
2026-05-06 20:29 48.11607 16.56053 619 ft 24 kts 296°
2026-05-06 20:30 48.11677 16.55838 621 ft 22 kts 296°
2026-05-06 20:30 48.11792 16.55484 614 ft 16 kts 296°
2026-05-06 20:30 48.11841 16.55425 598 ft 8 kts
2026-05-06 20:31 48.11895 16.55409 615 ft 9 kts 311°
2026-05-06 20:31 48.11925 16.55324 613 ft 8 kts 297°
2026-05-06 20:31 48.11967 16.55316 616 ft 8 kts 26°
2026-05-06 20:31 48.12022 16.55355 619 ft 10 kts 25°
2026-05-06 20:32 48.12088 16.55404 617 ft 11 kts 26°
2026-05-06 20:32 48.12140 16.55441 620 ft 5 kts 26°
2026-05-06 20:32 48.12156 16.55438 616 ft 2 kts 332°
2026-05-06 20:32 48.12161 16.55422 614 ft 2 kts 288°
2026-05-06 20:33 48.12162 16.55405 617 ft 0 kts 281°
2026-05-06 20:33 48.12166 16.55389 622 ft 2 kts 293°
2026-05-06 20:33 48.12170 16.55380 617 ft 0 kts 297°
2026-05-06 20:33 48.12170 16.55379 617 ft 0 kts 297°
2026-05-06 20:34 48.12169 16.55381 620 ft 0 kts 296°
2026-05-06 20:34 48.12169 16.55382 620 ft 0 kts 296°